Location: Newark
(46.0333°N, 5.8167°E)
Time: 03:34:53
(UTC+00:00)

Envisat - Pass Details

Date: 20 September 2019
Orbit: 764 x 766 km, 98.1° (Epoch: 17 October)

Event Time Altitude Azimuth Distance (km) Brightness Sun altitude
Rises 19:24:17 0° 224° (SW) 3,223 6.5 -18.6°
Reaches altitude 10° 19:28:49 10° 262° (W) 2,305 6.3 -19.3°
Maximum altitude 19:29:55 11° 274° (W) 2,262 6.5 -19.5°
Drops below altitude 10° 19:31:00 10° 287° (WNW) 2,309 6.7 -19.7°
Sets 19:35:35 0° 325° (NW) 3,243 7.2 -20.4°
